Location: Antioch Church
(34.9543°N, 88.5145°W)
Time: 18:26:05
(UTC+00:00)

Cosmos 614 Rocket - Pass Details

Date: 11 December 2019
Orbit: 733 x 763 km, 74.1° (Epoch: 19 January)

Event Time Altitude Azimuth Distance (km) Brightness Sun altitude
Rises 00:02:07 0° 200° (SSW) 3,168 7.7 -15.9°
Reaches altitude 10° 00:04:29 10° 202° (SSW) 2,244 6.9 -16.3°
Maximum altitude 00:09:33 76° 288° (WNW) 764 4.1 -17.3°
Enters shadow 00:14:34 10° 14° (NNE) 2,220 6.1 -18.3°
